Location: Newark
(33.6333°S, 78.8500°W)
Time: 10:00:16
(UTC+00:00)

Hubble Space Telescope - Visible Passes

Search period start: 26 August 2019 00:00
Search period end: 05 September 2019 00:00
Orbit: 536 x 540 km, 28.5° (Epoch: 25 August)

Date Brightness Start Highest point End Pass type
(mag) Time Alt. Az. Time Alt. Az. Time Alt. Az.
26 Aug 1.8 10:14:58 29° NW 10:15:50 32° N 10:19:33 10° NE visible
27 Aug 2.0 10:05:04 28° NNW 10:05:13 28° NNW 10:08:49 10° NE visible
28 Aug 2.3 09:55:11 24° N 09:55:11 24° N 09:58:02 10° NE visible
29 Aug 2.8 09:45:22 18° N 09:45:22 18° N 09:47:10 10° NNE visible
30 Aug 3.3 09:35:36 12° NNE 09:35:36 12° NNE 09:36:12 10° NNE visible
